timestamp,surface_pressure_avg,surface_temp_avg,battery_voltage,lat,long
2019-02-06 00:00:00+00:00,347.758,0.58,12.97,47.84626,-54.09684
2019-02-06 00:10:00+00:00,339.9963,0.5,12.89,47.84626,-54.09684
2019-02-06 00:20:00+00:00,336.958,0.5,12.97,47.84626,-54.09684
2019-02-06 00:30:00+00:00,346.4012,0.5,12.97,47.84626,-54.09684
2019-02-06 00:40:00+00:00,346.1862,0.5,12.97,47.84626,-54.09684
2019-02-06 00:50:00+00:00,334.748,0.5,13.05,47.84626,-54.09684
2019-02-06 01:00:00+00:00,337.2613,0.5,12.97,47.84626,-54.09684
2019-02-06 01:10:00+00:00,340.9514,0.5,12.89,47.84626,-54.09684
2019-02-06 01:20:00+00:00,331.1746,0.5,12.97,47.84626,-54.09684
2019-02-06 01:30:00+00:00,322.3013,0.5,12.97,47.84626,-54.09684
2019-02-06 01:40:00+00:00,325.1613,0.5,12.97,47.84626,-54.09684
2019-02-06 01:50:00+00:00,325.9613,0.5,12.97,47.84626,-54.09684
2019-02-06 02:00:00+00:00,313.7946,0.5,12.89,47.84626,-54.09684
2019-02-06 02:10:00+00:00,311.7814,0.5,12.81,47.84626,-54.09684
2019-02-06 02:20:00+00:00,313.938,0.5,12.97,47.84626,-54.09684
2019-02-06 02:30:00+00:00,308.9247,0.5,12.97,47.84626,-54.09684
2019-02-06 02:40:00+00:00,299.1597,0.5,12.97,47.84626,-54.09684
2019-02-06 02:50:00+00:00,295.6429,0.5,12.97,47.84626,-54.09684
2019-02-06 03:00:00+00:00,291.1813,0.5,12.89,47.84626,-54.09684
2019-02-06 03:10:00+00:00,283.1247,0.5,12.81,47.84626,-54.09684
2019-02-06 03:20:00+00:00,273.9797,0.5,12.89,47.84626,-54.09684
2019-02-06 03:30:00+00:00,263.0231,0.5,12.89,47.84626,-54.09684
2019-02-06 03:40:00+00:00,257.6264,0.48,12.97,47.84626,-54.09684
2019-02-06 03:50:00+00:00,249.4931,0.45,12.97,47.84626,-54.09684
2019-02-06 04:00:00+00:00,242.3897,0.4,12.89,47.84626,-54.09684
2019-02-06 04:10:00+00:00,236.5431,0.4,12.81,47.84626,-54.09684
2019-02-06 04:20:00+00:00,232.1947,0.4,12.89,47.84626,-54.09684
2019-02-06 04:30:00+00:00,228.7264,0.4,12.89,47.84626,-54.09684
2019-02-06 04:40:00+00:00,221.4398,0.4,12.97,47.84626,-54.09684
2019-02-06 04:50:00+00:00,215.9531,0.4,12.97,47.84626,-54.09684
2019-02-06 05:00:00+00:00,212.2348,0.4,12.89,47.84626,-54.09684
2019-02-06 05:10:00+00:00,206.9464,0.38,12.81,47.84626,-54.09684
2019-02-06 05:20:00+00:00,203.1331,0.38,12.89,47.84626,-54.09684
2019-02-06 05:30:00+00:00,203.6548,0.39,12.89,47.84626,-54.09684
2019-02-06 05:40:00+00:00,199.5881,0.38,12.89,47.84626,-54.09684
2019-02-06 05:50:00+00:00,193.1914,0.36,12.89,47.84626,-54.09684
2019-02-06 06:00:00+00:00,194.1265,0.36,12.81,47.84626,-54.09684
2019-02-06 06:10:00+00:00,196.8598,0.37,12.81,47.84626,-54.09684
2019-02-06 06:20:00+00:00,192.4498,0.35,12.89,47.84626,-54.09684
2019-02-06 06:30:00+00:00,191.3514,0.34,12.89,47.84626,-54.09684
2019-02-06 06:40:00+00:00,196.0848,0.35,12.89,47.84626,-54.09684
2019-02-06 06:50:00+00:00,193.2164,0.35,12.89,47.84626,-54.09684
2019-02-06 07:00:00+00:00,191.1764,0.34,12.81,47.84626,-54.09684
2019-02-06 07:10:00+00:00,201.4748,0.34,12.73,47.84626,-54.09684
2019-02-06 07:20:00+00:00,212.5964,0.35,12.81,47.84626,-54.09684
2019-02-06 07:30:00+00:00,209.2115,0.3,12.81,47.84626,-54.09684
2019-02-06 07:40:00+00:00,205.2664,0.3,12.89,47.84626,-54.09684
2019-02-06 07:50:00+00:00,216.5314,0.3,12.89,47.84626,-54.09684
2019-02-06 08:00:00+00:00,229.7515,0.3,12.81,47.84626,-54.09684
2019-02-06 08:10:00+00:00,225.0198,0.3,12.73,47.84626,-54.09684
2019-02-06 08:20:00+00:00,219.0481,0.3,12.81,47.84626,-54.09684
2019-02-06 08:30:00+00:00,233.6581,0.3,12.81,47.84626,-54.09684
2019-02-06 08:40:00+00:00,240.3848,0.3,12.89,47.84626,-54.09684
2019-02-06 08:50:00+00:00,240.0165,0.3,12.89,47.84626,-54.09684
2019-02-06 09:00:00+00:00,252.9231,0.3,12.81,47.84626,-54.09684
2019-02-06 09:10:00+00:00,267.4248,0.3,12.73,47.84626,-54.09684
2019-02-06 09:20:00+00:00,259.5331,0.3,12.81,47.84626,-54.09684
2019-02-06 09:30:00+00:00,253.0081,0.3,12.81,47.84626,-54.09684
2019-02-06 09:40:00+00:00,261.0997,0.3,12.89,47.84626,-54.09684
2019-02-06 09:50:00+00:00,270.6631,0.3,12.89,47.84626,-54.09684
2019-02-06 10:00:00+00:00,276.8763,0.3,12.81,47.84626,-54.09684
2019-02-06 10:10:00+00:00,286.493,0.3,12.73,47.84626,-54.09684
2019-02-06 10:20:00+00:00,295.3247,0.31,12.81,47.84626,-54.09684
2019-02-06 10:30:00+00:00,298.5014,0.31,12.81,47.84626,-54.09684
2019-02-06 10:40:00+00:00,308.823,0.3,12.81,47.84626,-54.09684
2019-02-06 10:50:00+00:00,319.4996,0.32,12.89,47.84626,-54.09684
2019-02-06 11:00:00+00:00,318.4531,0.3,12.81,47.84626,-54.09684
2019-02-06 11:10:00+00:00,324.3613,0.3,12.73,47.84626,-54.09684
2019-02-06 11:20:00+00:00,333.9996,0.3,12.81,47.84626,-54.09684
2019-02-06 11:30:00+00:00,335.958,0.3,12.81,47.84626,-54.09684
2019-02-06 11:40:00+00:00,342.9297,0.3,12.81,47.84626,-54.09684
2019-02-06 11:50:00+00:00,350.1213,0.3,12.89,47.84626,-54.09684
2019-02-06 12:00:00+00:00,357.1796,0.3,12.81,47.84626,-54.09684
2019-02-06 12:10:00+00:00,355.753,0.3,12.73,47.84626,-54.09684
2019-02-06 12:20:00+00:00,357.5229,0.3,12.81,47.84626,-54.09684
2019-02-06 12:30:00+00:00,365.0012,0.3,12.89,47.84626,-54.09684
2019-02-06 12:40:00+00:00,369.0946,0.3,12.89,47.84626,-54.09684
2019-02-06 12:50:00+00:00,360.9797,0.3,12.97,47.84626,-54.09684
2019-02-06 13:00:00+00:00,358.8214,0.3,12.97,47.84626,-54.09684
2019-02-06 13:10:00+00:00,364.4713,0.3,12.89,47.84626,-54.09684
2019-02-06 13:20:00+00:00,364.0463,0.3,13.05,47.84626,-54.09684
2019-02-06 13:30:00+00:00,359.8463,0.3,13.05,47.84626,-54.09684
2019-02-06 13:40:00+00:00,363.0663,0.3,13.21,47.84626,-54.09684
2019-02-06 13:50:00+00:00,360.1512,0.3,13.29,47.84626,-54.09684
2019-02-06 14:00:00+00:00,348.4696,0.3,13.37,47.84626,-54.09684
2019-02-06 14:10:00+00:00,347.0947,0.3,13.29,47.84626,-54.09684
2019-02-06 14:20:00+00:00,348.938,0.3,13.44,47.84626,-54.09684
2019-02-06 14:30:00+00:00,341.6513,0.3,13.44,47.84626,-54.09684
2019-02-06 14:40:00+00:00,334.5513,0.3,13.53,47.84626,-54.09684
2019-02-06 14:50:00+00:00,334.348,0.3,13.53,47.84626,-54.09684
2019-02-06 15:00:00+00:00,332.8396,0.3,13.44,47.84626,-54.09684
2019-02-06 15:10:00+00:00,318.0496,0.3,13.37,47.84626,-54.09684
2019-02-06 15:20:00+00:00,310.9698,0.3,13.53,47.84626,-54.09684
2019-02-06 15:30:00+00:00,308.5114,0.2,13.6,47.84626,-54.09684
2019-02-06 15:40:00+00:00,298.4714,0.2,13.68,47.84626,-54.09684
2019-02-06 15:50:00+00:00,284.4697,0.18,13.68,47.84626,-54.09684
2019-02-06 16:00:00+00:00,277.2598,0.15,13.68,47.84626,-54.09684
2019-02-06 16:10:00+00:00,267.0331,0.12,13.6,47.84626,-54.09684
2019-02-06 16:20:00+00:00,251.4697,0.11,13.68,47.84626,-54.09684
2019-02-06 16:30:00+00:00,242.6864,0.18,13.76,47.84626,-54.09684
2019-02-06 16:40:00+00:00,241.2781,0.2,13.84,47.84626,-54.09684
2019-02-06 16:50:00+00:00,232.8764,0.2,14.0,47.84626,-54.09684
2019-02-06 17:00:00+00:00,223.8798,0.19,14.0,47.84626,-54.09684
2019-02-06 17:10:00+00:00,220.9698,0.19,14.0,47.84626,-54.09684
2019-02-06 17:20:00+00:00,213.6215,0.16,14.08,47.84626,-54.09684
2019-02-06 17:30:00+00:00,204.8015,0.18,14.16,47.84626,-54.09684
2019-02-06 17:40:00+00:00,200.6598,0.21,14.24,47.84626,-54.09684
2019-02-06 17:50:00+00:00,195.8881,0.28,14.32,47.84626,-54.09684
2019-02-06 18:00:00+00:00,191.2765,0.2,14.24,47.84626,-54.09684
2019-02-06 18:10:00+00:00,191.3531,0.2,14.08,47.84626,-54.09684
2019-02-06 18:20:00+00:00,188.0148,0.21,14.16,47.84626,-54.09684
2019-02-06 18:30:00+00:00,185.2215,0.3,14.08,47.84626,-54.09684
2019-02-06 18:40:00+00:00,186.5865,0.3,14.08,47.84626,-54.09684
2019-02-06 18:50:00+00:00,185.4648,0.2,14.08,47.84626,-54.09684
2019-02-06 19:00:00+00:00,185.4565,0.2,13.92,47.84626,-54.09684
2019-02-06 19:10:00+00:00,187.7032,0.3,13.76,47.84626,-54.09684
2019-02-06 19:20:00+00:00,191.1248,0.3,13.68,47.84626,-54.09684
2019-02-06 19:30:00+00:00,193.0315,0.28,13.68,47.84626,-54.09684
2019-02-06 19:40:00+00:00,195.6981,0.3,13.6,47.84626,-54.09684
2019-02-06 19:50:00+00:00,201.5914,0.3,13.6,47.84626,-54.09684
2019-02-06 20:00:00+00:00,209.2498,0.3,13.44,47.84626,-54.09684
2019-02-06 20:10:00+00:00,213.9098,0.34,13.29,47.84626,-54.09684
2019-02-06 20:20:00+00:00,214.7281,0.3,13.29,47.84626,-54.09684
2019-02-06 20:30:00+00:00,223.2764,0.3,13.21,47.84626,-54.09684
2019-02-06 20:40:00+00:00,234.5014,0.36,13.21,47.84626,-54.09684
2019-02-06 20:50:00+00:00,237.6081,0.4,13.21,47.84626,-54.09684
2019-02-06 21:00:00+00:00,237.1781,0.38,13.13,47.84626,-54.09684
2019-02-06 21:10:00+00:00,243.5081,0.3,12.97,47.84626,-54.09684
2019-02-06 21:20:00+00:00,250.6881,0.27,13.05,47.84626,-54.09684
2019-02-06 21:30:00+00:00,251.7564,0.3,13.05,47.84626,-54.09684
2019-02-06 21:40:00+00:00,253.6381,0.36,13.05,47.84626,-54.09684
2019-02-06 21:50:00+00:00,258.5697,0.39,13.05,47.84626,-54.09684
2019-02-06 22:00:00+00:00,261.4448,0.4,12.97,47.84626,-54.09684
2019-02-06 22:10:00+00:00,260.9814,0.4,12.89,47.84626,-54.09684
2019-02-06 22:20:00+00:00,269.6564,0.4,12.97,47.84626,-54.09684
2019-02-06 22:30:00+00:00,282.9613,0.39,12.97,47.84626,-54.09684
2019-02-06 22:40:00+00:00,289.2397,0.4,12.97,47.84626,-54.09684
2019-02-06 22:50:00+00:00,291.8079,0.4,13.05,47.84626,-54.09684
2019-02-06 23:00:00+00:00,301.828,0.4,12.97,47.84626,-54.09684
2019-02-06 23:10:00+00:00,308.0914,0.4,12.89,47.84626,-54.09684
2019-02-06 23:20:00+00:00,315.2097,0.4,12.97,47.84626,-54.09684
2019-02-06 23:30:00+00:00,324.2747,0.4,12.97,47.84626,-54.09684
2019-02-06 23:40:00+00:00,329.688,0.4,12.97,47.84626,-54.09684
2019-02-06 23:50:00+00:00,335.013,0.4,12.97,47.84626,-54.09684
